Location: Newark
(21.1200°N, 73.4000°E)
Time: 06:17:21
(UTC+00:00)

Courier 1B Rocket - Pass Details

Date: 19 January 2020
Orbit: 920 x 1202 km, 28.2° (Epoch: 17 February)

Event Time Altitude Azimuth Distance (km) Brightness Sun altitude
Rises 13:26:18 0° 291° (WNW) 3,555 8.8 -9.3°
Reaches altitude 10° 13:28:55 10° 293° (WNW) 2,604 8.0 -9.8°
Maximum altitude 13:35:08 75° 18° (NNE) 954 4.9 -11.2°
Enters shadow 13:41:11 11° 103° (ESE) 2,548 6.7 -12.6°
Drops below altitude 10° 13:41:30 10° 103° (ESE) 2,659 - -12.6°
Sets 13:44:11 0° 105° (ESE) 3,635 - -13.2°
